ARG1815 SAVY-SABE

Flight info

Callsign ARG1815
Flight time N/A
Altitude 37000
Route LOMUS2G LOMUS UT693 BCA UW22 VALOS VALOS9Q
Aircraft B738/M-SDE2E3FGHIRWXY/LB1

Departure

Time 2026-04-20 21:00
Airport El Tehuelche Airport (SAVY)

Arrival

Time N/A
Airport Aeroparque Jorge Newbery (SABE)
Time Latitude Longitude Altitude Speed Heading
2026-04-20 20:18 -42.75552 -65.10068 439 ft 0 kts 57°
2026-04-20 20:54 -42.75551 -65.10066 439 ft 1 kts 57°
2026-04-20 20:54 -42.75552 -65.10058 439 ft 1 kts 103°
2026-04-20 20:54 -42.75559 -65.10052 434 ft 2 kts 141°
2026-04-20 20:55 -42.75577 -65.10032 435 ft 4 kts 141°
2026-04-20 20:55 -42.75609 -65.10003 433 ft 7 kts 147°
2026-04-20 20:55 -42.75657 -65.09961 439 ft 10 kts 148°
2026-04-20 20:55 -42.75721 -65.09896 431 ft 13 kts 118°
2026-04-20 20:56 -42.75696 -65.09784 424 ft 13 kts 57°
2026-04-20 20:56 -42.75650 -65.09682 438 ft 13 kts 58°
2026-04-20 20:56 -42.75600 -65.09575 434 ft 14 kts 57°
2026-04-20 20:56 -42.75548 -65.09463 439 ft 14 kts 58°
2026-04-20 20:57 -42.75499 -65.09355 437 ft 13 kts 58°
2026-04-20 20:57 -42.75451 -65.09252 433 ft 13 kts 57°
2026-04-20 20:57 -42.75406 -65.09153 438 ft 10 kts 58°
2026-04-20 20:57 -42.75375 -65.09088 437 ft 8 kts 52°
2026-04-20 20:58 -42.75341 -65.09058 427 ft 5 kts 24°
2026-04-20 20:58 -42.75316 -65.09025 436 ft 5 kts 52°
2026-04-20 20:58 -42.75322 -65.08996 430 ft 3 kts 148°
2026-04-20 20:58 -42.75337 -65.09007 436 ft 2 kts 224°
2026-04-20 20:59 -42.75344 -65.09021 437 ft 0 kts 238°
2026-04-20 20:59 -42.75361 -65.09060 437 ft 24 kts 238°
2026-04-20 20:59 -42.75592 -65.09559 430 ft 99 kts 238°
2026-04-20 21:00 -42.76078 -65.10608 451 ft 158 kts 240°
2026-04-20 21:00 -42.76690 -65.11855 1170 ft 158 kts 239°
2026-04-20 21:00 -42.77304 -65.13141 1868 ft 168 kts 240°
2026-04-20 21:00 -42.77958 -65.14570 2448 ft 187 kts 242°
2026-04-20 21:01 -42.78677 -65.16162 2865 ft 211 kts 240°
2026-04-20 21:01 -42.79487 -65.17968 3306 ft 227 kts 246°
2026-04-20 21:01 -42.79871 -65.20087 3829 ft 244 kts 270°
2026-04-20 21:01 -42.79369 -65.22242 4843 ft 243 kts 306°
2026-04-20 21:02 -42.78077 -65.23690 5973 ft 239 kts 324°
2026-04-20 21:02 -42.76653 -65.24881 6835 ft 243 kts 325°
2026-04-20 21:02 -42.75186 -65.26082 7592 ft 248 kts 326°
2026-04-20 21:02 -42.73621 -65.27090 8483 ft 252 kts 345°
2026-04-20 21:03 -42.71841 -65.27071 9228 ft 264 kts 15°
2026-04-20 21:03 -42.70751 -65.26323 9766 ft 270 kts 35°
2026-04-20 21:03 -42.69181 -65.23476 10310 ft 298 kts 70°
2026-04-20 21:03 -42.68550 -65.20722 10608 ft 322 kts 74°
2026-04-20 21:04 -42.67958 -65.17672 10862 ft 343 kts 76°
2026-04-20 21:04 -42.67218 -65.14565 11607 ft 345 kts 62°
2026-04-20 21:04 -42.65847 -65.11925 12532 ft 342 kts 46°
2026-04-20 21:04 -42.64007 -65.09788 12942 ft 356 kts 32°
2026-04-20 21:05 -42.61818 -65.08092 13187 ft 364 kts 27°
2026-04-20 21:05 -42.59577 -65.06504 13243 ft 364 kts 26°
2026-04-20 21:05 -42.57318 -65.04925 13156 ft 367 kts 26°
2026-04-20 21:05 -42.55071 -65.03289 13292 ft 368 kts 28°
2026-04-20 21:06 -42.52860 -65.01464 13929 ft 371 kts 31°
2026-04-20 21:06 -42.50704 -64.99565 14792 ft 371 kts 32°
2026-04-20 21:06 -42.49263 -64.98271 15126 ft 376 kts 32°
2026-04-20 21:06 -42.46352 -64.95673 16072 ft 378 kts 32°
2026-04-20 21:07 -42.44133 -64.93738 16860 ft 379 kts 31°
2026-04-20 21:07 -42.41903 -64.91814 17540 ft 382 kts 31°
2026-04-20 21:07 -42.40379 -64.90506 17957 ft 386 kts 31°
2026-04-20 21:07 -42.37351 -64.87914 18717 ft 392 kts 31°
2026-04-20 21:08 -42.35039 -64.85936 19302 ft 394 kts 32°
2026-04-20 21:08 -42.32716 -64.83948 19926 ft 395 kts 31°
2026-04-20 21:08 -42.30391 -64.81960 20557 ft 396 kts 31°
2026-04-20 21:08 -42.28841 -64.80635 20903 ft 399 kts 31°
2026-04-20 21:09 -42.26481 -64.78621 21380 ft 404 kts 31°
2026-04-20 21:09 -42.24096 -64.76585 21884 ft 407 kts 31°
2026-04-20 21:09 -42.21685 -64.74530 22415 ft 411 kts 31°
2026-04-20 21:09 -42.19258 -64.72463 22938 ft 413 kts 31°
2026-04-20 21:10 -42.16814 -64.70384 23437 ft 417 kts 31°
2026-04-20 21:10 -42.14348 -64.68287 23897 ft 420 kts 31°
2026-04-20 21:10 -42.11861 -64.66175 24313 ft 423 kts 31°
2026-04-20 21:10 -42.09369 -64.64060 24766 ft 424 kts 30°
2026-04-20 21:11 -42.06902 -64.61966 25209 ft 425 kts 31°
2026-04-20 21:11 -42.04395 -64.59843 25622 ft 427 kts 31°
2026-04-20 21:11 -42.01870 -64.57707 26032 ft 429 kts 31°
2026-04-20 21:11 -41.99325 -64.55557 26445 ft 431 kts 31°
2026-04-20 21:12 -41.96788 -64.53415 26894 ft 431 kts 32°
2026-04-20 21:12 -41.94240 -64.51264 27286 ft 432 kts 32°
2026-04-20 21:12 -41.91679 -64.49105 27600 ft 437 kts 32°
2026-04-20 21:12 -41.89093 -64.46929 28055 ft 438 kts 32°
2026-04-20 21:13 -41.86544 -64.44787 28418 ft 440 kts 33°
2026-04-20 21:13 -41.83947 -64.42600 28795 ft 441 kts 33°
2026-04-20 21:13 -41.81346 -64.40420 29159 ft 442 kts 33°
2026-04-20 21:13 -41.78723 -64.38227 29482 ft 445 kts 33°
2026-04-20 21:14 -41.76087 -64.36025 29847 ft 447 kts 33°
2026-04-20 21:14 -41.73450 -64.33816 30189 ft 448 kts 33°
2026-04-20 21:14 -41.70789 -64.31589 30436 ft 452 kts 32°
2026-04-20 21:14 -41.68114 -64.29351 30757 ft 452 kts 33°
2026-04-20 21:15 -41.65452 -64.27125 31132 ft 451 kts 33°
2026-04-20 21:15 -41.62827 -64.24923 31436 ft 451 kts 33°
2026-04-20 21:15 -41.60168 -64.22701 31796 ft 450 kts 32°
2026-04-20 21:15 -41.57511 -64.20494 32130 ft 450 kts 32°
2026-04-20 21:16 -41.54855 -64.18296 32479 ft 449 kts 33°
2026-04-20 21:16 -41.52200 -64.16091 32739 ft 450 kts 33°
2026-04-20 21:16 -41.49537 -64.13881 32968 ft 451 kts 33°
2026-04-20 21:16 -41.46871 -64.11670 33283 ft 451 kts 33°
2026-04-20 21:17 -41.44204 -64.09460 33609 ft 451 kts 33°
2026-04-20 21:17 -41.41543 -64.07258 33861 ft 451 kts 33°
2026-04-20 21:17 -41.38868 -64.05047 34120 ft 452 kts 33°
2026-04-20 21:17 -41.36192 -64.02836 34297 ft 454 kts 30°
2026-04-20 21:18 -41.33493 -64.00611 34425 ft 457 kts 30°
2026-04-20 21:18 -41.30795 -63.98389 34694 ft 455 kts 30°
2026-04-20 21:18 -41.28138 -63.96202 35002 ft 453 kts 30°
2026-04-20 21:18 -41.25457 -63.93997 35238 ft 453 kts 30°
2026-04-20 21:19 -41.22769 -63.91788 35429 ft 454 kts 30°
2026-04-20 21:19 -41.20078 -63.89578 35640 ft 454 kts 29°
2026-04-20 21:19 -41.17385 -63.87369 35889 ft 453 kts 29°
2026-04-20 21:20 -41.12056 -63.83003 36361 ft 452 kts 28°
2026-04-20 21:20 -41.09384 -63.80818 36621 ft 451 kts 28°
2026-04-20 21:20 -41.06717 -63.78639 36827 ft 451 kts 28°
2026-04-20 21:20 -41.04037 -63.76452 37008 ft 452 kts 28°
2026-04-20 21:21 -41.01357 -63.74262 37160 ft 453 kts 28°
2026-04-20 21:21 -40.95962 -63.69874 37155 ft 456 kts 27°
2026-04-20 21:22 -40.90605 -63.65520 37150 ft 452 kts 26°
2026-04-20 21:22 -40.85148 -63.61474 37155 ft 448 kts 23°
2026-04-20 21:23 -40.79645 -63.57592 37164 ft 445 kts 23°
2026-04-20 21:23 -40.74221 -63.53744 37161 ft 445 kts 23°
2026-04-20 21:24 -40.68772 -63.49845 37162 ft 446 kts 24°
2026-04-20 21:24 -40.63312 -63.45924 37171 ft 447 kts 23°
2026-04-20 21:25 -40.57837 -63.42004 37154 ft 449 kts 22°
2026-04-20 21:25 -40.52373 -63.38105 37165 ft 449 kts 22°
2026-04-20 21:26 -40.46869 -63.34179 37167 ft 450 kts 22°
2026-04-20 21:26 -40.41355 -63.30249 37154 ft 450 kts 22°
2026-04-20 21:27 -40.35850 -63.26339 37165 ft 449 kts 22°
2026-04-20 21:27 -40.30356 -63.22438 37163 ft 449 kts 22°
2026-04-20 21:28 -40.24903 -63.18579 37169 ft 448 kts 21°
2026-04-20 21:28 -40.19426 -63.14713 37171 ft 447 kts 22°
2026-04-20 21:29 -40.13956 -63.10854 37170 ft 445 kts 20°
2026-04-20 21:29 -40.08503 -63.07015 37173 ft 445 kts 20°
2026-04-20 21:30 -40.03055 -63.03186 37185 ft 444 kts 20°
2026-04-20 21:30 -39.97605 -62.99364 37179 ft 444 kts 20°
2026-04-20 21:31 -39.92162 -62.95551 37190 ft 444 kts 20°
2026-04-20 21:31 -39.86746 -62.91765 37182 ft 444 kts 20°
2026-04-20 21:32 -39.81302 -62.87968 37187 ft 443 kts 20°
2026-04-20 21:32 -39.75861 -62.84179 37193 ft 444 kts 20°
2026-04-20 21:33 -39.70444 -62.80415 37189 ft 444 kts 20°
2026-04-20 21:33 -39.64999 -62.76633 37195 ft 443 kts 19°
2026-04-20 21:34 -39.59572 -62.72872 37181 ft 441 kts 19°
2026-04-20 21:34 -39.54164 -62.69131 37184 ft 439 kts 19°
2026-04-20 21:35 -39.48775 -62.65431 37186 ft 437 kts 19°
2026-04-20 21:35 -39.43362 -62.61883 37184 ft 434 kts 18°
2026-04-20 21:36 -39.37981 -62.58401 37193 ft 432 kts 18°
2026-04-20 21:36 -39.32652 -62.54943 37187 ft 430 kts 18°
2026-04-20 21:37 -39.27317 -62.51473 37175 ft 428 kts 17°
2026-04-20 21:37 -39.22011 -62.48022 37185 ft 426 kts 17°
2026-04-20 21:38 -39.16713 -62.44580 37182 ft 424 kts 17°
2026-04-20 21:38 -39.11473 -62.41189 37187 ft 423 kts 17°
2026-04-20 21:39 -39.06206 -62.37787 37188 ft 423 kts 17°
2026-04-20 21:39 -39.00935 -62.34386 37186 ft 424 kts 17°
2026-04-20 21:40 -38.95659 -62.30982 37175 ft 424 kts 17°
2026-04-20 21:40 -38.90381 -62.27585 37188 ft 424 kts 17°
2026-04-20 21:41 -38.85132 -62.24215 37212 ft 424 kts 17°
2026-04-20 21:41 -38.79854 -62.20829 37197 ft 424 kts 16°
2026-04-20 21:42 -38.74569 -62.17444 37215 ft 424 kts 16°
2026-04-20 21:42 -38.69408 -62.13627 37224 ft 435 kts 24°
2026-04-20 21:43 -38.64475 -62.09089 37192 ft 437 kts 25°
2026-04-20 21:43 -38.59547 -62.04533 37180 ft 437 kts 25°
2026-04-20 21:44 -38.54626 -62.00043 37182 ft 436 kts 25°
2026-04-20 21:44 -38.49676 -61.95563 37183 ft 436 kts 25°
2026-04-20 21:45 -38.44727 -61.91099 37145 ft 435 kts 24°
2026-04-20 21:45 -38.39788 -61.86648 37172 ft 434 kts 24°
2026-04-20 21:46 -38.34857 -61.82216 37184 ft 434 kts 24°
2026-04-20 21:46 -38.29951 -61.77813 37180 ft 434 kts 24°
2026-04-20 21:47 -38.25013 -61.73387 37187 ft 434 kts 24°
2026-04-20 21:47 -38.20080 -61.68971 37186 ft 434 kts 24°
2026-04-20 21:48 -38.15133 -61.64553 37184 ft 433 kts 24°
2026-04-20 21:48 -38.10195 -61.60149 37178 ft 433 kts 24°
2026-04-20 21:49 -38.05258 -61.55752 37184 ft 433 kts 24°